RH
49 34 23 28 28 55 79 77 77 76 82 88 81 94 91 100 100 94 100 100 100 90 100 100 100 100 67 56 52 57 78 91 88 67 63 70 74 81 62 68 83 78 78 76
50 49 30 31 29 52 79 89 88 100 92 99 92 100 100 100 94 97 100 100 100 92 86 100 100 92 86 87 78 82 65 47 49 42 43 60 76 51 50 59 66 73 82 89
49 42 31 30 29 54 64 94 99 81 84 89 100 100 100 97 89 65 70 86 86 84 81 78 90 100 100 100 100 100 100 74 69 65 59 60 56 64 62 60 68 95 85 71
53 39 33 27 29 54 58 81 96 84 85 76 96 100 100 100 100 97 100 98 93 97 86 71 92 100 100 100 100 100 100 99 98 91 100 100 100 100 100 90 81 79 76 70
55 44 38 28 33 44 64 78 91 88 85 88 82 84 86 84 84 100 96 98 100 100 100 100 100 100 100 100 99 99 96 96 93 90 80 70 94 100 88 80 69 62 57 57
63 55 45 33 32 34 61 60 69 81 99 99 92 81 97 96 96 98 90 83 82 82 88 90 100 94 79 69 65 85 98 96 100 100 100 98 72 78 79 68 58 61 64 59
76 52 51 38 29 35 49 59 64 63 87 100 90 80 68 84 90 100 100 100 99 87 87 90 87 98 100 100 100 100 96 91 82 74 70 62 56 64 89 90 86 92 85 80
70 51 49 42 30 38 36 57 64 77 81 100 96 72 92 100 89 89 100 100 100 100 100 96 82 84 88 81 83 92 94 77 59 65 62 58 76 99 76 86 100 100 100 95
58 56 45 42 35 31 36 57 65 74 100 100 100 100 89 95 94 100 100 96 96 97 99 86 94 82 74 82 84 72 64 56 52 55 55 79 89 87 100 100 100 100 100 82
66 63 50 58 42 30 35 38 64 70 88 99 100 100 100 93 82 91 96 100 99 99 89 86 96 85 74 60 37 36 42 46 46 43 53 78 87 100 100 100 100 98 63 71
69 65 54 52 43 42 36 37 48 72 78 88 100 100 100 99 96 89 99 99 100 100 100 100 84 62 53 31 48 45 42 40 38 44 63 89 100 100 100 100 100 83 76 72
75 81 62 56 47 43 37 37 39 59 85 97 100 95 100 100 100 100 100 100 100 100 90 77 71 50 36 43 46 48 40 33 38 60 77 97 100 100 100 100 96 91 99 85
78 77 72 56 46 50 47 38 38 39 68 95 100 99 86 100 98 95 95 93 85 80 78 70 50 51 56 46 35 36 36 38 58 82 84 99 100 100 100 79 100 100 81 80
92 78 76 58 57 60 57 45 36 40 40 79 100 78 74 77 78 74 76 66 53 57 64 64 56 55 44 35 31 34 38 49 73 86 91 100 100 100 100 97 80 84 83 90
100 99 75 62 66 59 72 58 38 44 40 46 80 98 71 83 88 85 86 68 57 51 44 41 38 34 32 34 35 49 72 76 78 82 86 94 81 81 74 75 74 80 85 99
100 90 77 65 61 70 76 58 55 40 40 44 60 71 74 88 92 86 80 71 47 43 40 36 37 37 32 31 35 42 53 75 83 82 79 66 64 75 71 70 79 96 100 97
100 100 84 73 75 77 96 55 50 41 45 43 53 78 73 94 100 97 84 70 48 37 41 42 36 29 26 26 27 32 46 63 69 64 62 66 71 74 89 99 100 96 80 85
100 91 95 87 72 80 79 56 46 54 46 46 50 75 73 70 80 82 82 69 52 36 43 51 39 34 35 39 46 55 59 59 61 67 72 76 85 99 100 97 79 74 81 83
99 100 96 94 78 91 100 57 56 56 61 50 43 44 65 80 95 97 97 75 42 39 44 56 58 58 69 80 85 82 79 77 78 84 92 99 100 92 74 74 75 82 83 77
99 99 100 94 76 86 100 78 61 49 73 43 50 61 88 93 89 88 67 45 41 40 43 51 60 63 61 61 70 84 98 100 100 97 89 80 73 73 74 82 89 88 83 84
98 92 92 96 88 99 100 85 54 72 71 54 50 49 89 100 92 85 60 42 45 51 54 54 56 58 59 64 71 78 79 76 73 75 74 76 80 87 89 86 80 80 85 91
100 100 100 98 93 100 87 92 86 77 63 59 54 62 94 100 100 95 83 64 48 51 57 62 66 64 63 65 68 70 70 73 76 79 80 84 88 90 91 86 88 91 95 91
100 100 100 82 79 92 96 94 85 69 65 55 73 89 92 100 100 100 100 94 83 86 87 83 82 81 80 78 79 78 77 79 83 84 84 86 88 88 89 95 98 97 86 85
74 89 74 66 91 100 100 95 72 65 66 60 91 91 100 97 97 100 100 100 100 97 92 85 94 92 92 89 88 85 85 82 79 77 80 87 85 90 94 92 93 90 90 88
85 72 69 86 76 67 67 71 67 63 56 64 91 99 84 86 97 91 80 76 75 80 81 93 94 94 93 86 83 88 86 85 84 84 85 82 87 81 82 87 84 86 91 90
80 53 49 56 57 54 53 69 70 62 52 66 83 97 78 86 81 77 73 68 73 76 71 68 68 68 75 94 97 93 86 82 81 82 85 82 94 96 87 85 97 98 94 90
Wind_Speed
49 54 58 58 39 31 12 11 8 3 2 6 4 7 11 11 13 20 35 49 44 40 39 36 28 29 31 30 28 25 30 28 36 37 45 44 45 43 45 49 50 56 56 58
46 49 52 55 39 34 7 7 4 5 5 2 7 13 12 10 12 16 21 35 42 45 41 44 38 34 33 29 28 26 30 31 31 36 40 44 48 49 49 48 49 53 53 56
44 47 50 51 42 32 11 6 7 5 2 10 9 8 12 14 12 15 22 28 32 34 34 34 41 38 37 36 34 37 38 41 38 44 41 45 49 46 48 48 50 53 57 58
43 46 48 52 41 28 20 5 10 6 7 6 8 8 10 11 13 15 18 20 20 23 24 23 29 33 38 39 40 42 38 39 39 35 31 32 34 42 43 45 46 53 57 57
40 42 43 49 44 25 23 12 11 9 8 9 11 11 11 9 9 13 19 21 20 23 25 30 36 36 39 39 38 38 40 42 43 44 45 48 53 53 54 51 55 60 59 56
39 40 43 45 38 29 20 17 14 11 11 14 13 13 13 13 10 12 14 16 18 20 23 25 26 28 31 34 35 35 42 43 45 49 52 53 52 53 53 53 54 49 49 49
38 38 40 43 41 34 22 19 13 14 13 16 16 14 11 13 13 12 13 15 18 19 18 21 24 27 33 38 39 38 37 40 42 44 46 46 45 41 38 41 43 46 49 53
36 36 38 39 40 39 22 16 13 12 14 18 17 16 12 15 17 17 17 20 21 22 23 24 24 27 29 32 35 37 39 42 44 42 40 36 33 37 38 38 44 52 54 58
36 33 36 38 39 40 32 16 14 14 15 17 19 22 20 18 17 17 19 21 22 23 23 22 25 28 30 34 39 41 44 42 36 34 33 35 34 37 39 44 53 58 62 64
36 33 36 37 39 38 36 19 15 14 17 19 18 22 22 17 19 22 24 26 26 28 29 29 32 35 35 37 39 38 37 35 33 33 34 33 34 37 44 52 57 64 63 65
37 35 35 37 39 37 37 33 19 16 20 19 20 20 20 19 21 23 25 27 27 30 33 36 38 37 38 35 33 32 33 33 34 34 32 33 36 39 45 53 60 66 65 68
40 39 38 37 38 40 40 35 28 20 21 23 25 27 21 18 21 27 30 31 32 35 38 39 41 41 35 31 31 32 33 35 35 33 32 35 35 43 48 56 64 63 66 73
42 43 40 36 40 40 44 40 35 28 24 28 28 32 26 26 27 29 32 34 37 40 43 43 39 34 33 32 32 32 35 37 36 37 38 38 43 50 55 59 61 65 73 77
44 43 40 37 38 41 42 44 39 32 21 31 34 36 34 33 33 33 33 36 37 35 34 35 35 32 33 35 36 37 38 39 39 39 40 44 47 54 56 59 64 71 74 78
44 39 40 40 40 41 42 43 48 34 28 26 39 38 39 37 37 36 34 36 37 35 36 38 39 37 36 39 40 38 36 39 43 42 45 49 52 55 60 65 68 71 75 80
43 40 42 41 42 42 41 49 46 41 32 27 33 36 39 40 39 39 37 36 36 36 37 38 39 41 43 43 40 40 41 45 45 47 49 53 56 60 64 66 69 74 78 82
43 42 44 44 44 43 39 50 51 44 39 32 31 34 33 38 41 43 39 34 35 36 37 37 38 40 42 42 41 38 40 43 46 49 52 55 59 63 66 70 74 76 80 84
45 45 46 46 47 42 48 53 54 47 43 36 30 36 36 36 37 39 42 38 37 38 38 38 39 39 40 40 41 41 43 45 48 51 55 59 63 66 70 73 76 79 82 84
48 47 49 49 48 43 41 54 51 50 44 42 37 32 31 33 32 34 37 39 39 38 39 38 38 40 42 43 44 45 48 50 53 57 61 63 66 69 72 76 79 81 83 85
52 52 52 50 48 39 41 47 51 49 46 42 32 30 33 33 35 36 38 40 39 40 41 41 40 40 42 45 46 48 51 54 58 60 63 66 70 73 76 77 79 82 85 90
52 55 53 50 46 41 41 48 56 47 47 49 41 32 34 36 37 39 40 40 41 39 40 42 43 45 47 48 50 52 56 58 61 64 67 70 73 74 77 79 82 86 89 93
50 45 46 49 48 40 47 46 48 51 52 43 42 36 35 39 40 40 41 42 43 45 46 47 48 49 50 52 55 57 59 61 64 66 69 71 73 76 79 83 87 90 93 96
49 49 51 52 50 47 48 49 48 53 51 46 40 36 38 42 42 42 43 44 46 46 46 48 50 51 53 54 55 57 60 63 66 69 71 73 75 78 82 87 90 94 98 100
52 53 53 55 49 46 46 49 53 54 50 45 41 41 41 42 44 44 44 45 47 49 50 51 53 54 55 56 59 61 64 66 69 71 73 76 79 83 87 91 95 98 100 103
47 47 46 44 46 52 52 52 53 53 49 46 46 47 47 47 50 51 52 52 52 54 55 55 55 57 59 61 63 65 68 70 73 75 78 80 84 89 93 94 96 99 104 106
49 49 50 49 53 55 55 55 57 54 54 49 48 52 55 54 55 57 57 55 56 57 55 57 58 59 61 64 67 69 73 76 79 80 81 84 91 92 92 96 101 104 106 108
Wind_Direction
322 328 339 347 339 331 331 334 354 355 253 183 189 188 181 187 209 219 212 211 217 221 215 218 232 239 252 252 250 246 243 257 257 252 253 256 257 266 268 269 272 274 282 283
316 328 337 346 341 336 303 298 310 313 330 148 189 189 187 210 213 215 220 220 224 227 230 231 231 245 250 255 262 256 257 260 264 266 268 270 274 275 274 275 277 279 280 283
315 325 335 346 342 338 274 242 274 283 109 148 167 190 207 222 240 245 223 223 232 238 239 240 243 250 247 251 251 255 257 267 267 277 273 271 273 271 273 276 281 278 279 281
317 325 335 345 346 337 310 238 231 233 176 175 187 208 213 223 236 237 231 231 235 245 245 247 247 252 245 248 250 257 264 269 272 267 269 270 272 276 274 273 276 276 282 283
318 326 333 338 348 337 326 248 226 243 207 203 208 216 235 242 238 237 227 222 224 231 240 245 250 256 257 264 270 268 270 269 271 268 272 277 279 282 284 283 284 283 284 283
316 323 327 335 346 338 328 276 234 220 227 228 233 227 229 243 240 244 247 248 243 242 243 249 253 262 266 267 266 270 269 272 274 273 276 278 281 279 282 283 284 283 284 287
311 317 323 333 347 348 324 319 264 227 222 240 247 246 248 238 243 251 260 257 257 255 256 260 256 256 254 253 261 268 270 272 275 278 279 280 280 277 276 281 284 288 286 288
306 313 321 329 345 349 325 318 283 233 224 234 252 255 252 269 258 245 252 260 262 262 261 262 264 264 265 267 267 269 270 276 279 276 276 273 274 276 272 279 284 283 282 285
302 309 316 322 331 346 342 307 291 237 224 234 250 264 264 265 251 251 256 257 259 264 264 267 270 269 270 271 270 272 273 273 271 268 266 266 264 271 282 281 281 280 283 288
298 304 311 317 325 343 351 315 291 263 226 227 237 255 267 267 262 260 266 271 271 269 271 270 272 274 274 275 273 270 269 267 269 269 264 266 270 271 273 280 282 283 285 287
290 301 305 311 318 331 341 344 299 268 243 228 237 247 258 264 271 271 272 274 273 270 271 274 274 277 279 275 272 271 269 270 268 266 262 267 269 276 285 283 282 284 289 289
285 292 299 303 311 320 330 345 341 278 253 240 243 250 255 260 265 266 267 267 268 271 271 275 279 281 279 277 278 275 274 269 267 265 265 270 271 274 277 279 279 288 289 293
283 287 294 298 306 315 323 333 338 325 263 245 248 255 252 256 261 265 266 270 271 273 277 278 277 277 280 281 282 277 273 270 266 264 262 263 266 270 273 279 286 286 290 295
280 286 288 293 303 311 318 323 331 330 285 256 250 255 257 257 264 271 275 278 274 275 273 271 269 272 275 275 275 275 272 267 262 259 262 265 268 272 276 281 285 289 293 298
277 277 283 292 300 308 314 318 319 330 312 262 256 258 263 263 268 271 273 278 274 271 275 278 278 274 272 273 275 273 266 261 261 262 264 268 271 273 278 283 288 293 297 298
266 273 279 287 296 304 310 306 318 322 321 286 254 262 262 267 269 270 270 271 270 271 274 275 277 279 280 278 273 268 259 256 260 264 268 271 275 280 283 290 295 296 296 298
266 272 276 285 291 298 294 308 306 316 321 310 265 258 262 262 265 270 274 268 269 274 271 271 273 274 274 274 275 270 265 264 265 269 274 278 282 288 293 293 292 294 296 298
266 273 278 282 290 295 299 300 307 312 316 314 283 258 260 268 274 271 267 270 268 272 273 280 279 277 276 276 276 275 275 275 278 281 284 285 288 289 289 290 294 296 297 298
269 271 277 283 289 291 284 301 303 308 313 311 308 282 267 272 271 266 265 264 268 274 275 278 278 274 274 275 276 278 279 281 282 283 284 285 286 289 292 294 295 296 298 300
267 274 276 281 285 286 282 294 299 307 304 317 306 280 266 271 274 270 264 267 273 276 275 276 278 280 278 276 276 277 278 279 279 282 286 288 290 292 294 295 296 298 301 302
266 273 276 276 280 283 279 287 298 299 302 308 303 287 265 267 273 272 269 270 273 275 277 279 281 281 281 282 281 281 281 284 286 287 289 291 292 294 295 296 298 300 301 303
263 262 269 275 278 279 281 288 289 294 299 303 299 288 268 265 269 272 272 271 272 277 279 279 281 282 283 284 284 285 286 288 289 290 291 292 294 296 298 299 301 301 302 304
258 259 263 273 278 278 279 284 286 292 297 299 288 277 269 264 268 272 273 275 275 276 278 282 284 285 285 286 287 289 290 290 291 293 294 296 297 298 299 300 301 301 303 304
256 259 266 274 276 278 280 281 289 294 296 287 275 268 265 263 263 266 268 271 271 274 279 283 285 286 288 288 289 290 292 294 294 295 296 297 299 300 301 301 302 303 303 304
258 262 266 268 271 275 279 283 286 291 291 279 275 265 266 262 265 263 265 266 270 273 277 279 281 285 288 289 291 293 294 295 295 297 298 299 301 302 303 303 303 304 305 306
255 258 263 267 272 279 281 282 286 289 290 281 277 268 269 268 270 270 273 275 276 276 278 280 283 287 290 293 295 296 296 296 297 298 299 301 304 302 303 305 306 307 307 307